Saint Bonnet de Bellac- Haute Vienne - France
Donnes mto: samedi, 01/09/2012
Date Horaire Temp. E. Hum. E. P.atmo. Pluie Vent Direction Direction Ensoleilleme Solaire P. de rose Temp au vent Rafales
01/09/2012 00:00 9,3 C 60 % 1027,1 hPa 0,0 mm 0,0 km/h (0 Bft) N 360 0 min 0 W/m 1,9 C 9,3 C 0,0 km/h (0 Bft)
01/09/2012 00:10 9,3 C 60 % 1027,2 hPa 0,0 mm 0,0 km/h (0 Bft) N 360 0 min 0 W/m 1,9 C 9,3 C 0,0 km/h (0 Bft)
01/09/2012 00:20 9,3 C 61 % 1027,1 hPa 0,0 mm 0,0 km/h (0 Bft) N 360 0 min 0 W/m 2,2 C 9,3 C 0,0 km/h (0 Bft)
01/09/2012 00:30 9,3 C 62 % 1027,1 hPa 0,0 mm 1,1 km/h (1 Bft) N-NE 22 0 min 0 W/m 2,4 C 9,3 C 3,6 km/h (1 Bft)
01/09/2012 00:40 9,4 C 62 % 1027,1 hPa 0,0 mm 1,4 km/h (1 Bft) N 360 0 min 0 W/m 2,5 C 9,4 C 4,3 km/h (1 Bft)
01/09/2012 00:50 9,4 C 63 % 1027,2 hPa 0,0 mm 0,0 km/h (0 Bft) N 360 0 min 0 W/m 2,7 C 9,4 C 0,0 km/h (0 Bft)
01/09/2012 01:00 9,5 C 63 % 1027,3 hPa 0,0 mm 0,0 km/h (0 Bft) N-NE 22 0 min 0 W/m 2,8 C 9,5 C 0,0 km/h (0 Bft)
01/09/2012 01:10 9,6 C 63 % 1027,3 hPa 0,0 mm 1,1 km/h (1 Bft) N 360 0 min 0 W/m 2,9 C 9,6 C 4,3 km/h (1 Bft)
01/09/2012 01:20 9,6 C 64 % 1027,4 hPa 0,0 mm 1,1 km/h (1 Bft) N 360 0 min 0 W/m 3,1 C 9,6 C 4,3 km/h (1 Bft)
01/09/2012 01:30 9,8 C 64 % 1027,4 hPa 0,0 mm 1,1 km/h (1 Bft) E-NE 67 0 min 0 W/m 3,3 C 9,8 C 4,0 km/h (1 Bft)
01/09/2012 01:40 9,8 C 64 % 1027,3 hPa 0,0 mm 0,0 km/h (0 Bft) N-NO 337 0 min 0 W/m 3,3 C 9,8 C 1,4 km/h (1 Bft)
01/09/2012 01:50 9,8 C 65 % 1027,3 hPa 0,0 mm 0,0 km/h (0 Bft) NE 45 0 min 0 W/m 3,5 C 9,8 C 0,0 km/h (0 Bft)
01/09/2012 02:00 9,8 C 64 % 1027,3 hPa 0,0 mm 1,4 km/h (1 Bft) N 360 0 min 0 W/m 3,3 C 9,8 C 6,5 km/h (2 Bft)
01/09/2012 02:10 9,8 C 65 % 1027,4 hPa 0,0 mm 0,0 km/h (0 Bft) N 360 0 min 0 W/m 3,5 C 9,8 C 0,0 km/h (0 Bft)
01/09/2012 02:20 9,5 C 65 % 1027,3 hPa 0,0 mm 0,0 km/h (0 Bft) N-NO 337 0 min 0 W/m 3,3 C 9,5 C 0,0 km/h (0 Bft)
01/09/2012 02:30 9,3 C 66 % 1027,3 hPa 0,0 mm 0,0 km/h (0 Bft) N-NO 337 0 min 0 W/m 3,3 C 9,3 C 0,0 km/h (0 Bft)
01/09/2012 02:40 9,2 C 67 % 1027,3 hPa 0,0 mm 0,7 km/h (0 Bft) NO 315 0 min 0 W/m 3,4 C 9,2 C 4,3 km/h (1 Bft)
01/09/2012 02:50 9,1 C 67 % 1027,4 hPa 0,0 mm 0,0 km/h (0 Bft) N-NE 22 0 min 0 W/m 3,3 C 9,1 C 0,0 km/h (0 Bft)
01/09/2012 03:02 9,1 C 68 % 1027,4 hPa 0,0 mm 0,0 km/h (0 Bft) N-NO 337 0 min 0 W/m 3,5 C 9,1 C 0,0 km/h (0 Bft)
01/09/2012 03:10 8,9 C 69 % 1027,4 hPa 0,0 mm 0,0 km/h (0 Bft) N 360 0 min 0 W/m 3,5 C 8,9 C 1,4 km/h (1 Bft)
01/09/2012 03:20 8,8 C 68 % 1027,4 hPa 0,0 mm 0,0 km/h (0 Bft) N-NO 337 0 min 0 W/m 3,2 C 8,8 C 0,0 km/h (0 Bft)
01/09/2012 03:30 8,8 C 69 % 1027,2 hPa 0,0 mm 0,0 km/h (0 Bft) N-NO 337 0 min 0 W/m 3,4 C 8,8 C 0,0 km/h (0 Bft)
01/09/2012 03:40 8,8 C 69 % 1027,2 hPa 0,0 mm 0,0 km/h (0 Bft) N 360 0 min 0 W/m 3,4 C 8,8 C 0,0 km/h (0 Bft)
01/09/2012 03:50 8,8 C 70 % 1027,2 hPa 0,0 mm 0,0 km/h (0 Bft) N 360 0 min 0 W/m 3,6 C 8,8 C 0,0 km/h (0 Bft)
01/09/2012 04:00 8,7 C 70 % 1027,1 hPa 0,0 mm 0,0 km/h (0 Bft) N 360 0 min 0 W/m 3,5 C 8,7 C 0,0 km/h (0 Bft)
01/09/2012 04:10 8,6 C 70 % 1027,0 hPa 0,0 mm 0,0 km/h (0 Bft) N 360 0 min 0 W/m 3,4 C 8,6 C 0,0 km/h (0 Bft)
01/09/2012 04:20 8,6 C 70 % 1026,9 hPa 0,0 mm 0,0 km/h (0 Bft) NE 45 0 min 0 W/m 3,4 C 8,6 C 0,0 km/h (0 Bft)
01/09/2012 04:30 8,8 C 71 % 1027,0 hPa 0,0 mm 0,0 km/h (0 Bft) N 360 0 min 0 W/m 3,8 C 8,8 C 0,0 km/h (0 Bft)
01/09/2012 04:40 8,8 C 71 % 1026,9 hPa 0,0 mm 0,0 km/h (0 Bft) N 360 0 min 0 W/m 3,8 C 8,8 C 0,0 km/h (0 Bft)
01/09/2012 04:50 8,8 C 71 % 1026,7 hPa 0,0 mm 0,0 km/h (0 Bft) N-NO 337 0 min 0 W/m 3,8 C 8,8 C 0,0 km/h (0 Bft)
01/09/2012 05:00 8,8 C 71 % 1026,6 hPa 0,0 mm 0,0 km/h (0 Bft) N 360 0 min 0 W/m 3,8 C 8,8 C 0,0 km/h (0 Bft)
01/09/2012 05:10 8,8 C 72 % 1026,7 hPa 0,0 mm 0,0 km/h (0 Bft) NE 45 0 min 0 W/m 4,0 C 8,8 C 0,0 km/h (0 Bft)
01/09/2012 05:20 8,9 C 72 % 1026,5 hPa 0,0 mm 0,0 km/h (0 Bft) N-NO 337 0 min 0 W/m 4,1 C 8,9 C 0,0 km/h (0 Bft)
01/09/2012 05:30 8,9 C 72 % 1026,6 hPa 0,0 mm 0,0 km/h (0 Bft) N-NO 337 0 min 0 W/m 4,1 C 8,9 C 0,0 km/h (0 Bft)
01/09/2012 05:40 8,8 C 72 % 1026,7 hPa 0,0 mm 0,0 km/h (0 Bft) N-NE 22 0 min 0 W/m 4,0 C 8,8 C 0,0 km/h (0 Bft)
01/09/2012 05:50 8,8 C 72 % 1026,5 hPa 0,0 mm 0,0 km/h (0 Bft) N 360 0 min 0 W/m 4,0 C 8,8 C 0,0 km/h (0 Bft)
01/09/2012 06:00 8,8 C 72 % 1026,6 hPa 0,0 mm 0,0 km/h (0 Bft) N-NE 22 0 min 0 W/m 4,0 C 8,8 C 0,0 km/h (0 Bft)
01/09/2012 06:10 8,8 C 72 % 1026,5 hPa 0,0 mm 0,0 km/h (0 Bft) N-NE 22 0 min 0 W/m 4,0 C 8,8 C 0,0 km/h (0 Bft)
01/09/2012 06:20 8,8 C 73 % 1026,5 hPa 0,0 mm 0,0 km/h (0 Bft) N 360 0 min 0 W/m 4,2 C 8,8 C 0,0 km/h (0 Bft)
01/09/2012 06:30 8,7 C 73 % 1026,4 hPa 0,0 mm 0,0 km/h (0 Bft) N 360 0 min 0 W/m 4,1 C 8,7 C 0,0 km/h (0 Bft)
01/09/2012 06:40 8,6 C 73 % 1026,5 hPa 0,0 mm 0,0 km/h (0 Bft) N 360 0 min 0 W/m 4,0 C 8,6 C 0,0 km/h (0 Bft)
01/09/2012 06:50 8,4 C 73 % 1026,4 hPa 0,0 mm 0,0 km/h (0 Bft) N 360 0 min 0 W/m 3,8 C 8,4 C 0,0 km/h (0 Bft)
01/09/2012 07:00 8,3 C 74 % 1026,5 hPa 0,0 mm 0,0 km/h (0 Bft) N 360 0 min 0 W/m 3,9 C 8,3 C 0,0 km/h (0 Bft)
01/09/2012 07:10 8,0 C 74 % 1026,5 hPa 0,0 mm 0,0 km/h (0 Bft) N 360 0 min 0 W/m 3,7 C 8,0 C 0,0 km/h (0 Bft)
01/09/2012 07:20 7,9 C 75 % 1026,6 hPa 0,0 mm 0,0 km/h (0 Bft) N 360 0 min 0 W/m 3,7 C 7,9 C 0,0 km/h (0 Bft)
01/09/2012 07:30 7,8 C 75 % 1026,7 hPa 0,0 mm 0,0 km/h (0 Bft) N 360 0 min 0 W/m 3,7 C 7,8 C 0,0 km/h (0 Bft)
01/09/2012 07:40 7,7 C 76 % 1026,8 hPa 0,0 mm 0,0 km/h (0 Bft) N 360 0 min 0 W/m 3,7 C 7,7 C 3,2 km/h (1 Bft)
01/09/2012 07:50 7,8 C 77 % 1026,9 hPa 0,0 mm 0,0 km/h (0 Bft) N-NE 22 0 min 0 W/m 4,0 C 7,8 C 0,0 km/h (0 Bft)
01/09/2012 08:00 8,0 C 77 % 1026,8 hPa 0,0 mm 0,4 km/h (0 Bft) N 360 0 min 0 W/m 4,2 C 8,0 C 3,6 km/h (1 Bft)
01/09/2012 08:10 8,3 C 77 % 1026,8 hPa 0,0 mm 1,4 km/h (1 Bft) N-NE 22 0 min 0 W/m 4,5 C 8,3 C 3,2 km/h (1 Bft)
01/09/2012 08:20 8,5 C 78 % 1026,8 hPa 0,0 mm 1,8 km/h (1 Bft) N 360 0 min 0 W/m 4,9 C 8,5 C 3,6 km/h (1 Bft)
01/09/2012 08:30 9,1 C 78 % 1026,9 hPa 0,0 mm 0,7 km/h (0 Bft) N-NE 22 0 min 0 W/m 5,5 C 9,1 C 4,0 km/h (1 Bft)
01/09/2012 08:40 9,7 C 77 % 1026,9 hPa 0,0 mm 1,8 km/h (1 Bft) N 360 0 min 0 W/m 5,9 C 9,7 C 7,9 km/h (2 Bft)
01/09/2012 08:50 10,3 C 75 % 1027,0 hPa 0,0 mm 5,4 km/h (2 Bft) E-NE 67 0 min 0 W/m 6,1 C 10,3 C 12,2 km/h (2 Bft)
01/09/2012 09:00 10,9 C 73 % 1027,1 hPa 0,0 mm 5,0 km/h (1 Bft) N 360 0 min 0 W/m 6,3 C 10,9 C 7,6 km/h (2 Bft)
01/09/2012 09:10 11,3 C 72 % 1027,1 hPa 0,0 mm 0,4 km/h (0 Bft) N-NO 337 0 min 0 W/m 6,4 C 11,3 C 3,6 km/h (1 Bft)
01/09/2012 09:20 11,8 C 70 % 1027,2 hPa 0,0 mm 0,7 km/h (0 Bft) NE 45 0 min 0 W/m 6,5 C 11,8 C 3,2 km/h (1 Bft)
01/09/2012 09:30 12,5 C 69 % 1027,1 hPa 0,0 mm 5,0 km/h (1 Bft) N-NE 22 0 min 0 W/m 7,0 C 12,5 C 11,5 km/h (2 Bft)
01/09/2012 09:40 13,1 C 66 % 1027,5 hPa 0,0 mm 4,0 km/h (1 Bft) NE 45 0 min 0 W/m 6,9 C 13,1 C 6,8 km/h (2 Bft)
01/09/2012 09:50 13,6 C 65 % 1027,5 hPa 0,0 mm 2,9 km/h (1 Bft) N-NE 22 0 min 0 W/m 7,1 C 13,6 C 6,8 km/h (2 Bft)
01/09/2012 10:00 14,3 C 63 % 1027,4 hPa 0,0 mm 7,2 km/h (2 Bft) NE 45 0 min 0 W/m 7,4 C 14,3 C 9,0 km/h (2 Bft)
01/09/2012 10:10 14,9 C 61 % 1027,4 hPa 0,0 mm 5,4 km/h (2 Bft) E 90 0 min 0 W/m 7,4 C 14,9 C 6,1 km/h (2 Bft)
01/09/2012 10:20 15,4 C 60 % 1027,5 hPa 0,0 mm 4,3 km/h (1 Bft) N-NO 337 0 min 0 W/m 7,7 C 15,4 C 6,8 km/h (2 Bft)
01/09/2012 10:30 15,9 C 58 % 1027,4 hPa 0,0 mm 4,0 km/h (1 Bft) N-NE 22 0 min 0 W/m 7,6 C 15,9 C 7,6 km/h (2 Bft)
01/09/2012 10:40 16,3 C 57 % 1027,5 hPa 0,0 mm 5,0 km/h (1 Bft) N-NE 22 0 min 0 W/m 7,8 C 16,3 C 5,0 km/h (1 Bft)
01/09/2012 10:50 16,8 C 55 % 1027,5 hPa 0,0 mm 5,8 km/h (2 Bft) N 360 0 min 0 W/m 7,7 C 16,8 C 8,3 km/h (2 Bft)
01/09/2012 11:00 17,1 C 53 % 1027,5 hPa 0,0 mm 4,3 km/h (1 Bft) N 360 0 min 0 W/m 7,4 C 17,1 C 9,0 km/h (2 Bft)
01/09/2012 11:10 17,4 C 51 % 1027,4 hPa 0,0 mm 4,3 km/h (1 Bft) E 90 0 min 0 W/m 7,2 C 17,4 C 6,5 km/h (2 Bft)
01/09/2012 11:20 17,8 C 51 % 1027,3 hPa 0,0 mm 5,0 km/h (1 Bft) N 360 0 min 0 W/m 7,5 C 17,8 C 12,6 km/h (3 Bft)
01/09/2012 11:30 18,3 C 49 % 1027,4 hPa 0,0 mm 4,7 km/h (1 Bft) NE 45 0 min 0 W/m 7,4 C 18,3 C 6,8 km/h (2 Bft)
01/09/2012 11:40 18,4 C 47 % 1027,3 hPa 0,0 mm 4,7 km/h (1 Bft) N 360 0 min 0 W/m 6,9 C 18,4 C 16,2 km/h (3 Bft)
01/09/2012 11:50 18,6 C 47 % 1027,3 hPa 0,0 mm 5,0 km/h (1 Bft) N 360 0 min 0 W/m 7,1 C 18,6 C 5,0 km/h (1 Bft)
01/09/2012 12:00 18,9 C 44 % 1027,2 hPa 0,0 mm 6,8 km/h (2 Bft) N-NE 22 0 min 0 W/m 6,4 C 18,9 C 16,6 km/h (3 Bft)
01/09/2012 12:10 18,9 C 45 % 1027,3 hPa 0,0 mm 7,6 km/h (2 Bft) N-NE 22 0 min 0 W/m 6,7 C 18,9 C 15,8 km/h (3 Bft)
01/09/2012 12:20 18,8 C 42 % 1027,3 hPa 0,0 mm 13,0 km/h (3 Bft) NE 45 0 min 0 W/m 5,6 C 18,8 C 20,5 km/h (4 Bft)
01/09/2012 12:30 18,5 C 42 % 1027,1 hPa 0,0 mm 11,5 km/h (2 Bft) E-NE 67 0 min 0 W/m 5,3 C 18,5 C 19,1 km/h (3 Bft)
01/09/2012 12:40 18,5 C 44 % 1027,0 hPa 0,0 mm 9,4 km/h (2 Bft) NE 45 0 min 0 W/m 6,0 C 18,5 C 10,1 km/h (2 Bft)
01/09/2012 12:50 18,8 C 42 % 1027,0 hPa 0,0 mm 12,2 km/h (2 Bft) N-NE 22 0 min 0 W/m 5,6 C 18,8 C 13,0 km/h (3 Bft)
01/09/2012 13:00 19,1 C 42 % 1026,9 hPa 0,0 mm 4,3 km/h (1 Bft) N-NO 337 0 min 0 W/m 5,9 C 19,1 C 6,8 km/h (2 Bft)
01/09/2012 13:10 19,3 C 42 % 1026,7 hPa 0,0 mm 4,0 km/h (1 Bft) S-SE 157 0 min 0 W/m 6,1 C 19,3 C 4,0 km/h (1 Bft)
01/09/2012 13:20 19,6 C 40 % 1026,7 hPa 0,0 mm 6,1 km/h (2 Bft) N 360 0 min 0 W/m 5,6 C 19,6 C 10,4 km/h (2 Bft)
01/09/2012 13:30 19,4 C 40 % 1026,5 hPa 0,0 mm 9,7 km/h (2 Bft) N-NE 22 0 min 0 W/m 5,5 C 19,4 C 12,6 km/h (3 Bft)
01/09/2012 13:40 19,6 C 41 % 1026,4 hPa 0,0 mm 2,9 km/h (1 Bft) N-NO 337 0 min 0 W/m 6,0 C 19,6 C 11,2 km/h (2 Bft)
01/09/2012 13:50 19,7 C 40 % 1026,3 hPa 0,0 mm 6,8 km/h (2 Bft) N-NO 337 0 min 0 W/m 5,7 C 19,7 C 18,0 km/h (3 Bft)
01/09/2012 14:00 19,8 C 40 % 1026,3 hPa 0,0 mm 6,1 km/h (2 Bft) N 360 0 min 0 W/m 5,8 C 19,8 C 11,9 km/h (2 Bft)
01/09/2012 14:10 20,1 C 39 % 1026,3 hPa 0,0 mm 14,4 km/h (3 Bft) N-NE 22 0 min 0 W/m 5,7 C 20,1 C 18,4 km/h (3 Bft)
01/09/2012 14:20 20,2 C 38 % 1025,9 hPa 0,0 mm 9,7 km/h (2 Bft) N 360 0 min 0 W/m 5,4 C 20,2 C 9,7 km/h (2 Bft)
01/09/2012 14:30 20,2 C 39 % 1026,0 hPa 0,0 mm 6,8 km/h (2 Bft) E 90 0 min 0 W/m 5,8 C 20,2 C 15,5 km/h (3 Bft)
01/09/2012 14:40 20,2 C 39 % 1026,0 hPa 0,0 mm 12,6 km/h (3 Bft) N-NE 22 0 min 0 W/m 5,8 C 20,2 C 17,3 km/h (3 Bft)
01/09/2012 14:50 19,9 C 36 % 1025,8 hPa 0,0 mm 7,2 km/h (2 Bft) N 360 0 min 0 W/m 4,4 C 19,9 C 13,3 km/h (3 Bft)
01/09/2012 15:00 19,9 C 38 % 1025,8 hPa 0,0 mm 9,7 km/h (2 Bft) NE 45 0 min 0 W/m 5,2 C 19,9 C 13,0 km/h (3 Bft)
01/09/2012 15:10 20,1 C 37 % 1025,7 hPa 0,0 mm 10,4 km/h (2 Bft) NE 45 0 min 0 W/m 5,0 C 20,1 C 20,2 km/h (4 Bft)
01/09/2012 15:20 20,1 C 36 % 1025,6 hPa 0,0 mm 12,6 km/h (3 Bft) N-NE 22 0 min 0 W/m 4,6 C 20,1 C 18,7 km/h (3 Bft)
01/09/2012 15:30 19,9 C 37 % 1025,5 hPa 0,0 mm 13,7 km/h (3 Bft) N-NO 337 0 min 0 W/m 4,8 C 19,9 C 22,0 km/h (4 Bft)
01/09/2012 15:40 19,8 C 38 % 1025,5 hPa 0,0 mm 5,0 km/h (1 Bft) N 360 0 min 0 W/m 5,1 C 19,8 C 9,0 km/h (2 Bft)
01/09/2012 15:50 19,9 C 37 % 1025,4 hPa 0,0 mm 9,7 km/h (2 Bft) N-NO 337 0 min 0 W/m 4,8 C 19,9 C 25,2 km/h (4 Bft)
01/09/2012 16:00 20,0 C 38 % 1025,3 hPa 0,0 mm 6,8 km/h (2 Bft) O 270 0 min 0 W/m 5,2 C 20,0 C 12,2 km/h (2 Bft)
01/09/2012 16:10 20,2 C 38 % 1025,3 hPa 0,0 mm 6,5 km/h (2 Bft) NE 45 0 min 0 W/m 5,4 C 20,2 C 11,9 km/h (2 Bft)
01/09/2012 16:20 20,1 C 38 % 1025,3 hPa 0,0 mm 3,2 km/h (1 Bft) N-NE 22 0 min 0 W/m 5,3 C 20,1 C 8,6 km/h (2 Bft)
01/09/2012 16:30 19,9 C 37 % 1025,2 hPa 0,0 mm 15,1 km/h (3 Bft) O 270 0 min 0 W/m 4,8 C 19,9 C 15,1 km/h (3 Bft)
01/09/2012 16:40 20,1 C 38 % 1025,0 hPa 0,0 mm 9,4 km/h (2 Bft) N-NE 22 0 min 0 W/m 5,3 C 20,1 C 15,5 km/h (3 Bft)
01/09/2012 16:50 20,2 C 39 % 1025,1 hPa 0,0 mm 6,1 km/h (2 Bft) NE 45 0 min 0 W/m 5,8 C 20,2 C 10,4 km/h (2 Bft)
01/09/2012 17:00 20,3 C 38 % 1024,8 hPa 0,0 mm 11,9 km/h (2 Bft) NO 315 0 min 0 W/m 5,5 C 20,3 C 14,0 km/h (3 Bft)
01/09/2012 17:10 19,8 C 38 % 1025,0 hPa 0,0 mm 6,8 km/h (2 Bft) NE 45 0 min 0 W/m 5,1 C 19,8 C 6,8 km/h (2 Bft)
01/09/2012 17:20 19,9 C 38 % 1025,0 hPa 0,0 mm 2,2 km/h (1 Bft) NO 315 0 min 0 W/m 5,2 C 19,9 C 7,9 km/h (2 Bft)
01/09/2012 17:30 20,3 C 38 % 1024,9 hPa 0,0 mm 9,4 km/h (2 Bft) NE 45 0 min 0 W/m 5,5 C 20,3 C 18,0 km/h (3 Bft)
01/09/2012 17:40 20,2 C 38 % 1024,9 hPa 0,0 mm 5,8 km/h (2 Bft) N-NO 337 0 min 0 W/m 5,4 C 20,2 C 11,2 km/h (2 Bft)
01/09/2012 17:50 20,2 C 39 % 1024,7 hPa 0,0 mm 5,4 km/h (2 Bft) N 360 0 min 0 W/m 5,8 C 20,2 C 5,4 km/h (2 Bft)
01/09/2012 18:00 20,4 C 36 % 1024,8 hPa 0,0 mm 5,0 km/h (1 Bft) E-NE 67 0 min 0 W/m 4,8 C 20,4 C 8,3 km/h (2 Bft)
01/09/2012 18:10 19,9 C 38 % 1024,8 hPa 0,0 mm 5,0 km/h (1 Bft) NE 45 0 min 0 W/m 5,2 C 19,9 C 5,0 km/h (1 Bft)
01/09/2012 18:20 19,9 C 38 % 1024,8 hPa 0,0 mm 6,8 km/h (2 Bft) N-NE 22 0 min 0 W/m 5,2 C 19,9 C 10,8 km/h (2 Bft)
01/09/2012 18:30 19,8 C 38 % 1024,9 hPa 0,0 mm 9,0 km/h (2 Bft) N-NE 22 0 min 0 W/m 5,1 C 19,8 C 9,0 km/h (2 Bft)
01/09/2012 18:40 19,8 C 38 % 1024,7 hPa 0,0 mm 8,3 km/h (2 Bft) N-NE 22 0 min 0 W/m 5,1 C 19,8 C 17,3 km/h (3 Bft)
01/09/2012 18:50 19,9 C 38 % 1024,7 hPa 0,0 mm 6,1 km/h (2 Bft) NE 45 0 min 0 W/m 5,2 C 19,9 C 6,1 km/h (2 Bft)
01/09/2012 19:00 19,9 C 38 % 1024,6 hPa 0,0 mm 3,6 km/h (1 Bft) N-NE 22 0 min 0 W/m 5,2 C 19,9 C 7,9 km/h (2 Bft)
01/09/2012 19:10 19,8 C 38 % 1024,6 hPa 0,0 mm 7,9 km/h (2 Bft) N 360 0 min 0 W/m 5,1 C 19,8 C 11,5 km/h (2 Bft)
01/09/2012 19:20 19,6 C 38 % 1024,7 hPa 0,0 mm 4,0 km/h (1 Bft) N-NE 22 0 min 0 W/m 4,9 C 19,6 C 11,5 km/h (2 Bft)
01/09/2012 19:30 19,4 C 39 % 1024,7 hPa 0,0 mm 1,4 km/h (1 Bft) N-NO 337 0 min 0 W/m 5,1 C 19,4 C 6,1 km/h (2 Bft)
01/09/2012 19:40 19,3 C 40 % 1024,7 hPa 0,0 mm 0,4 km/h (0 Bft) E-NE 67 0 min 0 W/m 5,4 C 19,3 C 3,2 km/h (1 Bft)
01/09/2012 19:50 18,9 C 40 % 1024,6 hPa 0,0 mm 1,8 km/h (1 Bft) N-NE 22 0 min 0 W/m 5,0 C 18,9 C 4,0 km/h (1 Bft)
01/09/2012 20:00 18,3 C 41 % 1024,5 hPa 0,0 mm 1,4 km/h (1 Bft) NE 45 0 min 0 W/m 4,8 C 18,3 C 3,2 km/h (1 Bft)
01/09/2012 20:10 17,6 C 42 % 1024,5 hPa 0,0 mm 3,2 km/h (1 Bft) N 360 0 min 0 W/m 4,5 C 17,6 C 6,8 km/h (2 Bft)
01/09/2012 20:20 17,1 C 44 % 1024,5 hPa 0,0 mm 0,0 km/h (0 Bft) N 360 0 min 0 W/m 4,8 C 17,1 C 0,0 km/h (0 Bft)
01/09/2012 20:30 16,6 C 45 % 1024,6 hPa 0,0 mm 0,0 km/h (0 Bft) N 360 0 min 0 W/m 4,6 C 16,6 C 0,0 km/h (0 Bft)
01/09/2012 20:40 16,1 C 45 % 1024,5 hPa 0,0 mm 1,1 km/h (1 Bft) N 360 0 min 0 W/m 4,2 C 16,1 C 3,6 km/h (1 Bft)
01/09/2012 20:50 15,6 C 46 % 1024,6 hPa 0,0 mm 0,0 km/h (0 Bft) N 360 0 min 0 W/m 4,0 C 15,6 C 0,0 km/h (0 Bft)
01/09/2012 21:00 15,0 C 48 % 1024,8 hPa 0,0 mm 0,0 km/h (0 Bft) N 360 0 min 0 W/m 4,1 C 15,0 C 0,0 km/h (0 Bft)
01/09/2012 21:10 14,5 C 49 % 1024,9 hPa 0,0 mm 0,0 km/h (0 Bft) N-NE 22 0 min 0 W/m 3,9 C 14,5 C 0,0 km/h (0 Bft)
01/09/2012 21:20 13,9 C 50 % 1024,9 hPa 0,0 mm 0,0 km/h (0 Bft) N-NE 22 0 min 0 W/m 3,7 C 13,9 C 0,0 km/h (0 Bft)
01/09/2012 21:30 13,4 C 51 % 1025,0 hPa 0,0 mm 0,0 km/h (0 Bft) N 360 0 min 0 W/m 3,5 C 13,4 C 0,0 km/h (0 Bft)
01/09/2012 21:40 13,0 C 52 % 1025,2 hPa 0,0 mm 0,0 km/h (0 Bft) N 360 0 min 0 W/m 3,4 C 13,0 C 0,0 km/h (0 Bft)
01/09/2012 21:50 12,6 C 53 % 1025,2 hPa 0,0 mm 0,0 km/h (0 Bft) N 360 0 min 0 W/m 3,3 C 12,6 C 0,0 km/h (0 Bft)
01/09/2012 22:00 12,3 C 55 % 1025,4 hPa 0,0 mm 0,0 km/h (0 Bft) NO 315 0 min 0 W/m 3,5 C 12,3 C 0,0 km/h (0 Bft)
01/09/2012 22:10 11,9 C 55 % 1025,5 hPa 0,0 mm 0,0 km/h (0 Bft) NO 315 0 min 0 W/m 3,2 C 11,9 C 0,0 km/h (0 Bft)
01/09/2012 22:20 11,7 C 56 % 1025,7 hPa 0,0 mm 0,0 km/h (0 Bft) N 360 0 min 0 W/m 3,2 C 11,7 C 0,0 km/h (0 Bft)
01/09/2012 22:30 11,5 C 57 % 1025,7 hPa 0,0 mm 0,0 km/h (0 Bft) N 360 0 min 0 W/m 3,3 C 11,5 C 0,0 km/h (0 Bft)
01/09/2012 22:40 11,4 C 58 % 1025,7 hPa 0,0 mm 0,0 km/h (0 Bft) NO 315 0 min 0 W/m 3,4 C 11,4 C 4,0 km/h (1 Bft)
01/09/2012 22:50 11,4 C 59 % 1025,6 hPa 0,0 mm 0,0 km/h (0 Bft) N-NE 22 0 min 0 W/m 3,7 C 11,4 C 4,0 km/h (1 Bft)
01/09/2012 23:00 11,5 C 60 % 1025,4 hPa 0,0 mm 2,2 km/h (1 Bft) NO 315 0 min 0 W/m 4,0 C 11,5 C 7,9 km/h (2 Bft)
01/09/2012 23:10 11,6 C 62 % 1025,3 hPa 0,0 mm 0,4 km/h (0 Bft) N-NO 337 0 min 0 W/m 4,6 C 11,6 C 3,2 km/h (1 Bft)
01/09/2012 23:20 11,6 C 63 % 1025,3 hPa 0,0 mm 2,9 km/h (1 Bft) N 360 0 min 0 W/m 4,8 C 11,6 C 3,2 km/h (1 Bft)
01/09/2012 23:30 11,7 C 64 % 1025,4 hPa 0,0 mm 2,5 km/h (1 Bft) N 360 0 min 0 W/m 5,1 C 11,7 C 3,2 km/h (1 Bft)
01/09/2012 23:40 11,8 C 65 % 1025,5 hPa 0,0 mm 1,1 km/h (1 Bft) N 360 0 min 0 W/m 5,4 C 11,8 C 11,2 km/h (2 Bft)
01/09/2012 23:50 11,8 C 65 % 1025,6 hPa 0,0 mm 1,1 km/h (1 Bft) N-NO 337 0 min 0 W/m 5,4 C 11,8 C 4,0 km/h (1 Bft)
_ Min-Heure 07:40 18:00 20:40 - 22:50 - - - - 00:10 07:40 22:30
Minimum _ 7,7 C 36 % 1024,5 hPa - 0,0 km/h (0 Bft) - - - - 1,9 C 7,7 C 0,0 km/h (0 Bft)
_ Max-Heure 18:00 08:30 11:00 23:50 16:30 - - 23:50 23:50 10:40 18:00 15:50
Maximum _ 20,4 C 78 % 1027,5 hPa 0,0 mm 15,1 km/h
O (3 Bft)
- - 0 min 0 W/m 7,8 C 20,4 C 25,2 km/h
N-NO (4 Bft)
Moyenne _ 14,1 C 55 % 1026,3 hPa #0,0 mm 3,3 km/h (1 Bft) N - #0 min. 0 W/m 4,8 C 14,1 C 6,0 km/h (2 Bft)
Saint Bonnet de Bellac- Haute Vienne - France